SCP
0 0 0 0 0 0 0 0 0 0 0 0 0 0 0 0 0 0 0 0 0 0
0 0 0 0 0 0 0 0 0 0 0 0 0 0 0 0 0 0 0 0 0 0
0 0 0 0 0 0 0 0 0 0 0 0 0 0 0 0 0 0 0 0 0 0
0 0 0 0 0 0 0 0 0 0 0 0 0 0 0 0 0 0 0 0 0 0
0 0 0 0 0 0 0 0 0 0 0 0 0 0 0 0 0 0 0 0 0 0
0 0 0 0 0 0 0 0 0 0 0 0 0 0 0 0 0 0 0 0 0 0
0 0 0 0 0 0 0 0 0 0 0 0 0 0 0 0 0 0 0 0 0 0
0 0 0 0 0 0 0 0 0 0 0 0 0 0 0 0 0 0 0 0 0 0
0 0 0 0 0 0 0 0 0 0 0 0 0 0 0 0 0 0 0 0 0 0
0 0 0 0 0 0 0 0 0 0 0 0 0 0 0 0 0 0 0 0 0 0
0 0 0 0 0 0 0 0 0 0 0 0 0 0 0 0 0 0 0 0 0 0
0 0 0 0 0 0 0 0 0 0 0 0 0 0 0 0 0 0 0 0 0 0
0 0 0 0 0 0 0 0 0 0 0 0 0 0 0 0 0 0 0 0 0 0
0 0 0 0 0 0 0 0 0 0 0 0 0 0 0 0 0 0 0 0 0 0
Wind_Speed_500mb
60 61 63 68 74 73 75 71 63 63 64 61 62 63 61 58 56 52 47 45 40 33
57 63 64 69 74 78 76 73 67 65 66 66 67 66 63 62 59 54 49 43 36 29
58 60 60 62 70 78 79 76 71 70 68 71 70 67 65 61 57 52 46 38 32 25
57 62 62 69 71 73 75 81 75 75 75 77 75 70 65 59 53 46 40 34 28 22
55 62 64 68 69 73 75 82 80 78 81 80 78 72 64 57 50 43 37 31 25 20
64 65 66 68 69 74 77 82 81 81 84 84 79 74 66 56 49 43 35 26 20 6
66 66 66 63 66 72 76 81 81 86 88 88 82 74 66 59 50 42 34 24 14 19
65 69 73 68 68 68 74 79 84 91 94 90 82 75 67 59 51 44 35 23 20 25
68 71 77 72 71 72 75 80 88 94 97 93 84 74 65 57 53 47 34 25 34 25
74 76 77 74 73 73 76 79 88 95 99 89 80 73 65 60 54 46 35 35 31 33
74 77 75 76 71 74 77 80 88 97 92 82 80 75 69 63 59 50 44 44 36 37
71 74 73 73 70 75 77 79 83 86 87 86 81 75 71 66 56 56 52 49 43 41
56 62 66 69 71 73 71 68 74 76 80 79 78 76 71 65 56 63 57 55 52 48
40 46 52 58 61 59 58 60 70 73 76 72 74 71 66 68 75 70 59 58 57 52
Wind_Direction_500mb
231 226 223 227 225 227 222 223 219 219 217 213 209 203 201 202 203 204 205 208 208 211
227 222 226 234 231 225 225 220 215 215 217 208 204 201 201 202 202 202 203 204 203 205
228 225 225 228 226 228 222 219 214 214 211 203 200 201 201 200 200 201 199 199 199 199
229 227 228 231 237 232 224 222 213 213 208 203 200 201 201 201 201 200 199 196 195 194
228 225 228 230 237 230 232 223 213 210 206 205 202 201 202 203 201 201 200 198 194 191
226 224 225 230 233 234 233 225 216 210 208 206 205 203 201 201 201 196 192 190 184 240
230 228 227 235 234 238 231 225 218 212 209 209 207 204 202 197 195 192 186 178 212 235
233 229 229 232 236 235 231 225 218 213 210 208 206 204 201 198 195 191 183 208 210 237
236 232 232 234 234 235 233 226 218 212 213 208 205 202 203 201 196 188 207 207 229 236
235 233 232 234 238 236 234 229 220 213 212 208 205 203 201 201 198 206 227 238 226 237
236 235 232 232 236 237 234 229 221 214 211 209 208 206 203 202 202 222 246 247 227 240
235 235 233 234 236 237 234 228 221 214 213 212 210 208 207 205 208 232 255 247 232 238
238 237 238 237 237 237 233 228 216 215 216 215 214 214 211 207 225 239 254 251 240 239
234 235 236 237 238 236 232 222 211 213 217 217 219 218 217 220 234 252 255 254 245 246
Wind_Speed_850mb
60 61 63 68 74 73 75 71 63 63 64 61 62 63 61 58 56 52 47 45 40 33
57 63 64 69 74 78 76 73 67 65 66 66 67 66 63 62 59 54 49 43 36 29
58 60 60 62 70 78 79 76 71 70 68 71 70 67 65 61 57 52 46 38 32 25
57 62 62 69 71 73 75 81 75 75 75 77 75 70 65 59 53 46 40 34 28 22
55 62 64 68 69 73 75 82 80 78 81 80 78 72 64 57 50 43 37 31 25 20
64 65 66 68 69 74 77 82 81 81 84 84 79 74 66 56 49 43 35 26 20 6
66 66 66 63 66 72 76 81 81 86 88 88 82 74 66 59 50 42 34 24 14 19
65 69 73 68 68 68 74 79 84 91 94 90 82 75 67 59 51 44 35 23 20 25
68 71 77 72 71 72 75 80 88 94 97 93 84 74 65 57 53 47 34 25 34 25
74 76 77 74 73 73 76 79 88 95 99 89 80 73 65 60 54 46 35 35 31 33
74 77 75 76 71 74 77 80 88 97 92 82 80 75 69 63 59 50 44 44 36 37
71 74 73 73 70 75 77 79 83 86 87 86 81 75 71 66 56 56 52 49 43 41
56 62 66 69 71 73 71 68 74 76 80 79 78 76 71 65 56 63 57 55 52 48
40 46 52 58 61 59 58 60 70 73 76 72 74 71 66 68 75 70 59 58 57 52
Wind_Direction_850mb
231 226 223 227 225 227 222 223 219 219 217 213 209 203 201 202 203 204 205 208 208 211
227 222 226 234 231 225 225 220 215 215 217 208 204 201 201 202 202 202 203 204 203 205
228 225 225 228 226 228 222 219 214 214 211 203 200 201 201 200 200 201 199 199 199 199
229 227 228 231 237 232 224 222 213 213 208 203 200 201 201 201 201 200 199 196 195 194
228 225 228 230 237 230 232 223 213 210 206 205 202 201 202 203 201 201 200 198 194 191
226 224 225 230 233 234 233 225 216 210 208 206 205 203 201 201 201 196 192 190 184 240
230 228 227 235 234 238 231 225 218 212 209 209 207 204 202 197 195 192 186 178 212 235
233 229 229 232 236 235 231 225 218 213 210 208 206 204 201 198 195 191 183 208 210 237
236 232 232 234 234 235 233 226 218 212 213 208 205 202 203 201 196 188 207 207 229 236
235 233 232 234 238 236 234 229 220 213 212 208 205 203 201 201 198 206 227 238 226 237
236 235 232 232 236 237 234 229 221 214 211 209 208 206 203 202 202 222 246 247 227 240
235 235 233 234 236 237 234 228 221 214 213 212 210 208 207 205 208 232 255 247 232 238
238 237 238 237 237 237 233 228 216 215 216 215 214 214 211 207 225 239 254 251 240 239
234 235 236 237 238 236 232 222 211 213 217 217 219 218 217 220 234 252 255 254 245 246